Back to catalog

STARLINK-31297

AliveCommunicationsVLEO
NORAD 59158·PAYLOAD·🇺🇸 United States

Launched Mar 4, 2024 from Cape Canaveral Space Force Station

Loading…

Next Passes (next 24 hours)

TLE

FreshSource: CelesTrak SupGP

Epoch: Sep 14, 2026, 20:43 UTC

1 59158C 24044G   26257.86368056 -.00039282  00000+0 -14229-2 0  2578
2 59158  42.9996 118.8134 0001300 268.2915 165.6488 15.27594277    10

Track STARLINK-31297 in real time with AllMySat

Download on the App Store